STARLINK-11599, 63670

Orbit data source: Space-Track

STARLINK-11599, 63670 is a payload satellite owned by SpaceX/Seattle (US) in LEO that was launched on Mon, 28 Apr 2025 UTC via an FALCON 9 launch vehicle from the Air Force Eastern Test Range (AFETR). Payload-class satellites include a variety of spacecraft equipped with specific instruments for various scientific and technological missions. These include communications satellites like Starlink; space stations such as the ISS; scientific satellites like the Hubble; Earth observation satellites from companies like Planet Labs, Umbra, and HawkEye 360; GPS; miniature CubeSats for education and research; and military/defense satellites.

Loading next visibility...
Identifier
63670, 2025-085G
Orbit
LEO
Country
Flag of USUS
Related business
Manufacturer
SpaceX/Seattle
Mission
Operational Commercial Communications
Bus & Motor
STARLINK V2MD, Unknown motor
Mass
960 kg wet, ~910 kg dry
Launch date (UTC)
2025-04-28 (1 year ago)
Launch vehicle
FALCON 9
Launch site
Air Force Eastern Test Range (AFETR)
Object type
Payload
Rocket body
Debris
Shape & HBR
Box + 2 Pan, 18.1 m
Radar Cross Section
36.964 m², Large (>1 m²)

Expand to show TLE details & history
Last TLE update: 22 hours ago

TLE from 22 hours ago
0 STARLINK-11599
1 63670U 25085G   26170.95491278  .00153894  00000-0  11786-2 0  9998
2 63670  43.0012  22.1616 0003554 255.5712 104.4761 15.70879287 66320
Epoch: 2026-06-19T22:55Z
TLE epoch observation values (Epoch: 2026-06-19T22:55:04.464Z)
Latitude
-0.00003°
Longitude
130.2165°
Altitude
356.753 km
Speed
7.697 km/s
True Right ascension
01h 28m 38s
True Declination
0° 00' 00"
Sunlit
Object was in daylight at epoch
Visualization orbit readout
Latitude
Unknown
Longitude
Unknown
Altitude
Unknown
Speed
Unknown
Apparent Right ascension
Unknown
Apparent Declination
Unknown
Sunlit
N/A
Visualization observer readout
Local Sidereal Time
07:24:36
Azimuth
Unknown
Elevation
Unknown
Doppler factor
Unknown
Orbital elements
Apogee altitude
360.758 km
Perigee altitude
355.97 km
Semi-major axis
6,736.501 km
Eccentricity
0.00036
Inclination
43.0012°
RAAN
22.1616°
Arg. of periapsis
255.5712°
True anomaly
104.51553°
Mean anomaly
104.4761°
Eccentric anomaly
104.49581°
Mean motion
3.92547 °/min
Orbital period
91.71 mins
BSTAR
0.0011786
Loading maneuver chart data...
Computing Atmospheric mass density...
Loading historical data...
Loading historical data...
Loading historical data...
Loading historical data...
Loading historical data...
Loading historical data...
Loading historical data...

Documentation

Showing up to 5 results
|